Orbital Elements at Epoch 2459000.5 (2020-May-31.0) TDB
Reference: JPL 19 (heliocentric ecliptic J2000)
Element | Value | Uncertainty (1-sigma) | Units |
e | .03588492846090427 | 5.3314e-08 | |
a | 5.214966757366772 | 1.1271e-07 | au |
q | 5.027828048352672 | 2.8058e-07 | au |
i | 8.366451246654863 | 5.6913e-06 | deg |
node | 140.7727679499239 | 3.5352e-05 | deg |
peri | 189.6561367669796 | 8.6006e-05 | deg |
M | 33.12877567423377 | 7.5744e-05 | deg |
tp | 2458600.206416345131 (2019-Apr-26.70641635) | 0.00092142 | TDB |
period | 4349.864647362517 11.91 | 0.00014102 3.861e-07 | d yr |
n | .08276119584968725 | 2.6831e-09 | deg/d |
Q | 5.402105466380872 | 1.1676e-07 | au |
|
| | Orbit Determination Parameters
Additional Information
|